Weather History for Columbia Airport, CA

Change the Weather History Date:

Wednesday, October 23, 2013

  Actual Average (KMOD) Record (KMOD)
Temperature  
Mean Temperature 62 °F -  
Max Temperature 80 °F 76 °F 92 °F (1965)
Min Temperature 44 °F 51 °F 31 °F (1949)
Degree Days  
Heating Degree Days 3 3  
Month to date heating degree days 29  
Since 1 July heating degree days 32  
Cooling Degree Days 0 1  
Month to date cooling degree days 78  
Year to date cooling degree days 1690  
Growing Degree Days 12 (Base 50)    
Moisture  
Dew Point 27 °F    
Average Humidity 33    
Maximum Humidity 54    
Minimum Humidity 10    
Precipitation  
Precipitation 0.00 in 0.03 in 0.52 in (1989)
Month to date precipitation 0.43  
Year to date precipitation 9.46  
Since 1 July precipitation 0.71  
Snow  
Snow 0.00 in - 0.00 in (2002)
Month to date snowfall  
Since 1 July snowfall  
Since 1 September snowfall  
Snow Depth -    
Sea Level Pressure  
Sea Level Pressure 29.95 in    
Wind  
Wind Speed 1 mph (West)    
Max Wind Speed 8 mph    
Max Gust Speed -    
Visibility 10 miles    
Events      
T = Trace of Precipitation, MM = Missing Value Source: NWS Daily Summary

Daily Weather History Graph

Daily Weather History Graph

Search for Another Location

Airport:

Trip Planner

Search our weather history database for the weather conditions in past years. The results will help you decide how hot, cold, wet, or windy it might be!

Date:

Astronomy

Oct. 23, 2013 Rise Set
Actual Time 7:18 AM PDT 6:12 PM PDT
Civil Twilight 6:51 AM PDT 6:39 PM PDT
Nautical Twilight 6:20 AM PDT 7:10 PM PDT
Astronomical Twilight 5:50 AM PDT 7:40 PM PDT
Moon 9:50 PM PDT (10/23) 11:37 AM PDT (10/23)
Length of Visible Light 11h 48m
Length of Day
10h 54m
Waning Gibbous, 78% of the Moon is Illuminated
Oct 23
Waning Gibbous
Oct 26
Last Quarter
Nov 3
New
Nov 9
First Quarter
Nov 17
Full

Hourly Weather History & Observations

Time (PDT) Temp. Dew Point Humidity Pressure Visibility Wind Dir Wind Speed Gust Speed Precip Events Conditions
12:15 AM 48.2 °F 28.4 °F 46% 29.98 in 10.0 mi Calm Calm - N/A   Clear
12:35 AM 48.2 °F 28.4 °F 46% 29.98 in 10.0 mi Calm Calm - N/A   Clear
12:55 AM 48.2 °F 28.4 °F 46% 29.97 in 10.0 mi Calm Calm - N/A   Clear
1:15 AM 50.0 °F 26.6 °F 40% 29.97 in 10.0 mi Calm Calm - N/A   Clear
1:35 AM 48.2 °F 28.4 °F 46% 29.97 in 10.0 mi Calm Calm - N/A   Clear
1:55 AM 48.2 °F 28.4 °F 46% 29.97 in 10.0 mi Calm Calm - N/A   Clear
2:15 AM 48.2 °F 26.6 °F 43% 29.97 in 10.0 mi Calm Calm - N/A   Clear
2:35 AM 48.2 °F 26.6 °F 43% 29.97 in 10.0 mi Calm Calm - N/A   Clear
2:55 AM 48.2 °F 26.6 °F 43% 29.97 in 10.0 mi Calm Calm - N/A   Clear
3:15 AM 46.4 °F 26.6 °F 46% 29.97 in 10.0 mi Calm Calm - N/A   Clear
3:35 AM 44.6 °F 26.6 °F 49% 29.96 in 10.0 mi Calm Calm - N/A   Clear
3:55 AM 46.4 °F 26.6 °F 46% 29.96 in 10.0 mi Calm Calm - N/A   Clear
4:15 AM 46.4 °F 26.6 °F 46% 29.96 in 10.0 mi Calm Calm - N/A   Clear
4:35 AM 46.4 °F 26.6 °F 46% 29.96 in 10.0 mi Calm Calm - N/A   Clear
4:55 AM 46.4 °F 26.6 °F 46% 29.96 in 10.0 mi Calm Calm - N/A   Clear
5:15 AM 46.4 °F 26.6 °F 46% 29.96 in 10.0 mi Calm Calm - N/A   Clear
5:35 AM 46.4 °F 26.6 °F 46% 29.96 in 10.0 mi Calm Calm - N/A   Clear
5:55 AM 46.4 °F 26.6 °F 46% 29.96 in 10.0 mi Calm Calm - N/A   Clear
6:15 AM 46.4 °F 26.6 °F 46% 29.96 in 10.0 mi Calm Calm - N/A   Clear
6:35 AM 46.4 °F 26.6 °F 46% 29.96 in 10.0 mi Calm Calm - N/A   Clear
6:55 AM 46.4 °F 26.6 °F 46% 29.96 in 10.0 mi Calm Calm - N/A   Clear
7:15 AM 44.6 °F 26.6 °F 49% 29.96 in 10.0 mi Calm Calm - N/A   Clear
7:35 AM 46.4 °F 26.6 °F 46% 29.96 in 10.0 mi Calm Calm - N/A   Clear
7:55 AM 46.4 °F 26.6 °F 46% 29.97 in 10.0 mi Calm Calm - N/A   Clear
8:15 AM 48.2 °F 28.4 °F 46% 29.98 in 10.0 mi Calm Calm - N/A   Clear
8:35 AM 53.6 °F 28.4 °F 38% 29.98 in 10.0 mi Calm Calm - N/A   Clear
8:55 AM 57.2 °F 30.2 °F 36% 29.98 in 10.0 mi Calm Calm - N/A   Clear
9:15 AM 60.8 °F 30.2 °F 31% 29.98 in 10.0 mi Calm Calm - N/A   Clear
9:35 AM 66.2 °F 32.0 °F 28% 29.98 in 10.0 mi Calm Calm - N/A   Clear
9:55 AM 71.6 °F 24.8 °F 17% 29.98 in 10.0 mi Calm Calm - N/A   Clear
10:15 AM 73.4 °F 19.4 °F 13% 29.98 in 10.0 mi WSW 3.5 mph - N/A   Clear
10:35 AM 75.2 °F 19.4 °F 12% 29.98 in 10.0 mi WSW 3.5 mph - N/A   Clear
10:55 AM 75.2 °F 21.2 °F 13% 29.97 in 10.0 mi South 3.5 mph - N/A   Clear
11:15 AM 77.0 °F 21.2 °F 12% 29.97 in 10.0 mi Calm Calm - N/A   Clear
11:35 AM 78.8 °F 19.4 °F 11% 29.97 in 10.0 mi West 4.6 mph - N/A   Clear
11:55 AM 80.6 °F 21.2 °F 11% 29.96 in 10.0 mi Calm Calm - N/A   Clear
12:15 PM 80.6 °F 21.2 °F 11% 29.96 in 10.0 mi WSW 4.6 mph - N/A   Clear
12:35 PM 80.6 °F 19.4 °F 10% 29.95 in 10.0 mi West 4.6 mph - N/A   Clear
12:55 PM 80.6 °F 23.0 °F 12% 29.95 in 10.0 mi West 8.1 mph - N/A   Clear
1:15 PM 80.6 °F 23.0 °F 12% 29.94 in 10.0 mi West 3.5 mph - N/A   Clear
1:35 PM 80.6 °F 23.0 °F 12% 29.94 in 10.0 mi WSW 4.6 mph - N/A   Clear
1:55 PM 80.6 °F 24.8 °F 13% 29.93 in 10.0 mi West 6.9 mph - N/A   Clear
2:15 PM 80.6 °F 24.8 °F 13% 29.93 in 10.0 mi WSW 6.9 mph - N/A   Clear
2:35 PM 80.6 °F 26.6 °F 14% 29.92 in 10.0 mi West 5.8 mph - N/A   Clear
2:55 PM 80.6 °F 26.6 °F 14% 29.92 in 10.0 mi SW 8.1 mph - N/A   Clear
3:15 PM 80.6 °F 24.8 °F 13% 29.92 in 10.0 mi West 6.9 mph - N/A   Clear
3:35 PM 80.6 °F 24.8 °F 13% 29.92 in 10.0 mi WSW 5.8 mph - N/A   Clear
3:55 PM 80.6 °F 24.8 °F 13% 29.92 in 10.0 mi WSW 5.8 mph - N/A   Clear
4:15 PM 80.6 °F 23.0 °F 12% 29.92 in 10.0 mi West 5.8 mph - N/A   Clear
4:35 PM 80.6 °F 23.0 °F 12% 29.92 in 10.0 mi West 4.6 mph - N/A   Clear
4:55 PM 78.8 °F 24.8 °F 14% 29.92 in 10.0 mi West 4.6 mph - N/A   Clear
5:15 PM 77.0 °F 24.8 °F 14% 29.92 in 10.0 mi West 5.8 mph - N/A   Clear
5:35 PM 75.2 °F 26.6 °F 17% 29.92 in 10.0 mi WNW 4.6 mph - N/A   Clear
5:55 PM 73.4 °F 28.4 °F 19% 29.92 in 10.0 mi WNW 4.6 mph - N/A   Clear
6:15 PM 66.2 °F 28.4 °F 24% 29.92 in 10.0 mi WNW 3.5 mph - N/A   Clear
6:35 PM 64.4 °F 30.2 °F 28% 29.93 in 10.0 mi Calm Calm - N/A   Clear
6:55 PM 60.8 °F 32.0 °F 34% 29.94 in 10.0 mi Calm Calm - N/A   Clear
7:15 PM 57.2 °F 32.0 °F 38% 29.94 in 10.0 mi Calm Calm - N/A   Clear
7:35 PM 57.2 °F 32.0 °F 38% 29.95 in 10.0 mi Calm Calm - N/A   Clear
7:55 PM 55.4 °F 32.0 °F 41% 29.95 in 10.0 mi Calm Calm - N/A   Clear
8:15 PM 53.6 °F 32.0 °F 44% 29.95 in 10.0 mi Calm Calm - N/A   Clear
8:35 PM 53.6 °F 32.0 °F 44% 29.95 in 10.0 mi Calm Calm - N/A   Clear
8:55 PM 53.6 °F 32.0 °F 44% 29.95 in 10.0 mi Calm Calm - N/A   Clear
9:15 PM 50.0 °F 32.0 °F 50% 29.95 in 10.0 mi Calm Calm - N/A   Clear
9:35 PM 50.0 °F 32.0 °F 50% 29.95 in 10.0 mi Calm Calm - N/A   Clear
9:55 PM 50.0 °F 32.0 °F 50% 29.96 in 10.0 mi Calm Calm - N/A   Clear
10:15 PM 50.0 °F 32.0 °F 50% 29.96 in 10.0 mi Calm Calm - N/A   Clear
10:35 PM 50.0 °F 32.0 °F 50% 29.96 in 10.0 mi Calm Calm - N/A   Clear
10:55 PM 48.2 °F 32.0 °F 54% 29.96 in 10.0 mi Calm Calm - N/A   Clear
11:15 PM 48.2 °F 32.0 °F 54% 29.97 in 10.0 mi Calm Calm - N/A   Clear
11:35 PM 48.2 °F 32.0 °F 54% 29.97 in 10.0 mi Calm Calm - N/A   Clear
11:55 PM 48.2 °F 32.0 °F 54% 29.97 in 10.0 mi Calm Calm - N/A   Clear